Погода в Сургуте

Погода в Сургуте : погода сейчас, прогноз погоды и архив. Всё, что Вы хотите узнать о погоде в Сургуте!

Хотите узнать прогноз погоды в Сургуте? Тогда Вам сюда: Погода в Сургуте

Поиск расширенной информации на нашем сайте:

Другие новости

Новости СМИ2

Главная страница сайта

Новости сайта

02.10.2013

Напоминаем, что на нашем новом сайте вы можете получить высокодетализированные прогнозы погоды по пунктам России, СНГ и мира (включающие важные для авиации метеовеличины, такие как направление и скорость ветра, видимость, явления погоды, количество и форма облачности, нижняя и верхняя граница облачности), а также ознакомиться с разнообразными материалами по авиационной метеорологии и подборкой полезных ссылок на эту тему.

Сайт Метеоцентр.Азия посвящён разработке технологий оптимизации авиаметеорологического обслуживания, включая проектирование и перспективное создание нескольких автоматизированных авиаметеорологических систем:
- система выпуска высокодетальных прогностических карт явлений погоды для нижнего воздушного пространства по России и ближнему зарубежью;
- система верификации прогнозов TAF (выпускаемых синоптиками официальных АМСГ РФ и ближнего зарубежья) и AUTOTAF (выпускаемых сайтом Метеоцентр.Азия) - выявление ошибок, онлайн-сопоставление с фактической погодой METAR, автоматическое внесение коррективов в прогнозы при резком отклонении фактической погоды от прогноза, подсчёт оправдываемости прогнозов по элементам и в целом;
- система обработки, анализа и отображения авиаметеорологической информации для применения провайдерами метеорологической информации.

Рекомендуем: Переработка пластмасс отходы полипропилена скидки.

Погода в Сургуте - сегодня

Время (UTC), дата Ветер
(°,м/с) 
Видим.   Явления Облачность Т
(°С)
Тd
(°С)
f(%) Тe
(°С)
Pmin
(гПа)
dP
(гПа)
Po
(мм)
O2
(г/м3)
Тmin Tmax R s Состояние
почвы
06 25.05.17 140 (ЮВ) 4000 м    4/0 верхняя 
[Ci fib]
+9.2 +1.2 57 +8  1002.5  0.3  747  291           
09 25.05.17 200 (Ю) 4000 м    5/4 1500 м верхняя 
[Sc|Ci fib]
+10.6 +0.2 49 +10  1003.5  747  290           
12 25.05.17 140 (ЮВ) 4000 м  в посл. час ливневой дождь  6/4 1200 м кучево-дожд., средняя 
[Cb cap|Ac trans]
+10 +1.3 55 +10  1005.9  2.4  749  291           
15 25.05.17 240 (ЮЗ) 4000 м    6/4 1200 м кучево-дожд., средняя 
[Cb cap|Ac trans]
+8.7 +0.4 56 +8  1007.7  1.8  750  293    +12       
18 25.05.17 290 (З) 4000 м    9/9 360 м кучево-дожд. 
[Cb cap]
+3.9 +1.8 86 +1  1011.1  3.1  753  299           
21 25.05.17 300 (СЗ) 4000 м    10/5 500 м кучево-дожд., средняя 
[Cb cap|As op]
+1.6 +1 96 -2  1014  2.9  755  302           
00 26.05.17 280 (З) 4000 м    5/0 средняя 
[Ac trans]
+2.1 +2.1 100 1016.3  2.3  757  302           
03 26.05.17 290 (З) 4000 м    8/4 630 м кучево-дожд., средняя 
[Cb cap|Ac trans]
+5.1 +0 70 +3  1018.6  2.4  758  300  +0.7         
06 26.05.17 280 (З) 4000 м    8/4 1200 м кучево-дожд., средняя 
[Cb cap|Ac trans]
+7.7 -4.7 41 +5  1019.4  0.8  759  298           
09 26.05.17 240 (ЮЗ) 4000 м    6/4 1500 м верхняя 
[Sc|Ci fib]
+9.6 -4.8 36 +8  1019.4  0.1  759  296           
12 26.05.17 210 (ЮЗ) 4000 м    9/0 средняя 
[Ac trans]
+9.9 -4 37 +9  1019.1  -0.3  759  296           
15 26.05.17 210 (ЮЗ) 4000 м    9/9 2000 м средняя 
[Ac trans]
+9 -0.3 52 +8  1017.7  -1.4  758  296    +10.3       
21 26.05.17 160 (Ю) 4000 м    9/4 1110 м кучево-дожд., средняя 
[Cb cap|Ac trans]
+9.1 +1.7 60 +8  1009.4  -4.9  752  293           
03 27.05.17 220 (ЮЗ) 4000 м    8/0 средняя 
[Ac trans]
+12.3 +7.8 74 +11  1005.7  -1.4  749  287  +6.7         
06 27.05.17 240 (ЮЗ) 4000 м    5/0 верхняя 
[Ci fib]
+18.2 +10.7 62 +20  1006.2  0.6  749  281           
09 27.05.17 250 (З) 4000 м    8/4 1320 м средняя 
[Sc|Ac trans]
+23 +9.7 43 +24  1005.5  -0.6  749  277           
12 27.05.17 250 (З) 4000 м    6/0 средняя 
[Ac trans]
+24.2 +8.8 37 +24  1004.5  -0.9  748  275           
21 27.05.17 140 (ЮВ) 4000 м    5/0 средняя 
[Ac trans]
+15.4 +10.3 72 +18  1002.9  -1.3  747  283           
00 28.05.17 180 (Ю) 4000 м    9/0 средняя 
[Ac trans]
+15.8 +7.6 58 +16  1002.2  -0.7  746  283           
06 28.05.17 120 (ЮВ) 4000 м    9/0 средняя 
[Ac trans]
+16.7 +7.7 55 +17  999.3  -1.5  744  281           
18 28.05.17 120 (ЮВ) 4000 м    9/9 2000 м средняя 
[Ac trans]
+12.2 +11.3 94 +16  993.6  -2.4  740  283           
21 28.05.17 260 (З) 4000 м  дымка  6/0 средняя 
[Ac trans]
+9.9 +9.9 100 +12  993.2  -0.5  740  286           
09 29.05.17 300 (СЗ) 4000 м    9/9 500 м 
[Sc]
+5 +1.6 79 +2  1002.7  2.5  747  295           
12 29.05.17 300 (СЗ) 4000 м    9/9 630 м кучево-дожд. 
[Cb cap]
+5.5 +2 78 +3  1004.4  1.7  748  295           
18 29.05.17 020 (С) 4000 м    9/9 540 м кучево-дожд. 
[Cb cap]
+2.6 +0.8 88 +1  1004.5  -0.6  748  298           
Время (UTC), дата Ветер
(°,м/с) 
Видим.   Явления Облачность Т
(°С)
Тd
(°С)
f(%) Тe
(°С)
Pmin
(гПа)
dP
(гПа)
Po
(мм)
O2
(г/м3)
Тmin Tmax R s Состояние
почвы

Для получения пояснительной информации подведите курсор к названию столбца.

ПОГОДА в Сургуте - архив

Всё, что Вы хотите узнать о погоде в Сургуте - удобно и подробно!

Выберите нужную дату (начиная с 1 января 2015* года) и нажмите кнопку "Найти".
Будут отображены архивные сводки погоды по пункту Сургут, начиная с указанной даты.


Отображать данные в формате CSV (для использования в таблицах Excel)


Внимание! Наш архив погоды предназначен исключительно для личного некоммерческого использования в познавательных целях. Если Вам необходимы официальные справки о состоянии погоды (для производственных, юридических, коммерческих и т.п. целей), обращайтесь в органы Росгидромета.

*Примечание: данная дата относится к архиву по метеостанциям СССР (Россия, СНГ, Балтия).
Архив по метеостанциям Зарубежной Европы и Азии (кроме Китая) хранится 10 дней, по другим регионам земного шара (Китай, Африка, Америка, Австралия, Океания) - 1 день.

Сургут - район местоположения метеостанции


Название, широта, долгота, высота метеостанции:
Сургут 61.2°ш. 73.6°д. 56 м над ур. моря [Российская Федерация]

Дополнительная информация

В oтличие oт бoльшинства пoгoдных сайтoв мы публикуем пoдрoбную метеoинфoрмацию в детальнoм прoфессиoнальнoм фoрмате.

Характеристики температуры и влажнoсти вoздуха измеряются на высoте 2 м в тени вдали oт зданий и деревьев.
Скoрoсть ветра измеряется на высoте 10 м (на урoвне рoста челoвека скoрoсть ветра ниже в 1.5-2 раза). Если метеoстанция нахoдится в гoрoде или в лесу, тo скoрoсть ветра занижена на 2-4 м/с пo сравнению с oткрытым местoм. Скoрoсть ветра над акватoриями крупных рек и oзёр, а также на вершинах хoлмoв на 2-5 м/с выше, чем в oбычных услoвиях.
Атмoсфернoе давление в разных тoчках местнoсти мoжет значительнo oтличаться oт давления на метеoстанции, в зависимoсти oт услoвий рельефа (при пoдъёме на 10 м давление пoнижается примернo на 1 мм рт.ст.).